Find STARLINK-37686

NORAD ID: 799500921 Int'l Des: 2026-127AD Constellation: starlink operational

Current View

Loading 3D Globe...

About STARLINK-37686

Description loading...

Upcoming Passes

Passes for default location (London). Set your location on the main map for personalized predictions.

Altitude History

Loading altitude history...

Two-Line Element Set

1 99999C 2026127AD 26159.92479167 .01014100 00000-0 959290-4 0 1597
2 99999 53.1612 304.8280 0009066 292.3373 95.8963 16.10622143 17
Epoch: Jun 8, 2026 • Age: 4 hours